Weather History for Doha, Qatar

Change the Weather History Date:

Friday, April 5, 2013

  Actual Average Record
Temperature  
Mean Temperature 86 °F -  
Max Temperature 93 °F 91 °F 105 °F (1999)
Min Temperature 79 °F 70 °F 66 °F (2002)
Cooling Degree Days 21    
Growing Degree Days 36 (Base 50)    
Moisture  
Dew Point 62 °F    
Average Humidity 47    
Maximum Humidity 70    
Minimum Humidity 16    
Precipitation  
Precipitation 0.00 in 0.01 in - ()
Sea Level Pressure  
Sea Level Pressure 29.71 in    
Wind  
Wind Speed 11 mph ()    
Max Wind Speed 21 mph    
Max Gust Speed 28 mph    
Visibility 5.1 miles    
Events Rain    
Averages and records for this station are not official NWS values.
T = Trace of Precipitation, MM = Missing Value Source: Averaged Metar Reports

Daily Weather History Graph

Daily Weather History Graph

Search for Another Location

Airport:

Trip Planner

Search our weather history database for the weather conditions in past years. The results will help you decide how hot, cold, wet, or windy it might be!

Date:

Astronomy

Apr. 05, 2013 Rise Set
Actual Time 5:21 AM AST 5:51 PM AST
Civil Twilight 4:58 AM AST 6:15 PM AST
Nautical Twilight 4:31 AM AST 6:42 PM AST
Astronomical Twilight 4:03 AM AST 7:09 PM AST
Moon 1:42 AM AST (4/5) 1:18 PM AST (4/5)
Length of Visible Light 13h 16m
Length of Day
12h 30m
Waning Crescent, 26% of the Moon is Illuminated
Apr 5
Waning Crescent
Apr 10
New
Apr 18
First Quarter
Apr 25
Full
May 2
Last Quarter

Hourly Weather History & Observations

Time (AST) Temp. Heat Index Dew Point Humidity Pressure Visibility Wind Dir Wind Speed Gust Speed Precip Events Conditions
12:00 AM 80.6 °F 83.2 °F 68.0 °F 65% 29.74 in 5.6 mi ESE 12.7 mph - N/A   Unknown
12:30 AM 80.6 °F 83.9 °F 69.8 °F 70% 29.77 in 5.0 mi North 11.5 mph - N/A   Unknown
1:00 AM 80.6 °F 82.7 °F 66.2 °F 61% 29.77 in 5.0 mi North 12.7 mph - N/A   Unknown
1:30 AM 80.6 °F 82.3 °F 64.4 °F 58% 29.77 in - NNE 10.4 mph - N/A   Clear
2:00 AM 82.4 °F 83.9 °F 64.4 °F 54% 29.77 in - North 6.9 mph - N/A   Clear
2:30 AM 80.6 °F 82.3 °F 64.4 °F 58% 29.77 in - North 6.9 mph - N/A   Clear
3:00 AM 81 °F - 64 °F 47% 29.75 in 7 mi NE 10.4 mph - -   Mostly Cloudy
3:00 AM 80.6 °F 82.3 °F 64.4 °F 58% 29.74 in - NE 10.4 mph - N/A   Clear
3:30 AM 80.6 °F 81.8 °F 62.6 °F 54% 29.77 in 6.2 mi ENE 5.8 mph - N/A   Mostly Cloudy
4:00 AM 80.6 °F 81.8 °F 62.6 °F 54% 29.77 in 6.2 mi WSW 3.5 mph - N/A   Scattered Clouds
4:30 AM 82.4 °F 82.5 °F 59.0 °F 45% 29.71 in 6.2 mi ESE 15.0 mph - N/A   Scattered Clouds
5:00 AM 80.6 °F 81.5 °F 60.8 °F 51% 29.74 in 6.2 mi ESE 10.4 mph - N/A   Mostly Cloudy
5:30 AM 82.4 °F 83.4 °F 62.6 °F 51% 29.80 in 6.2 mi SW 6.9 mph - N/A   Mostly Cloudy
6:00 AM 82.4 °F 82.5 °F 59.0 °F 45% 29.77 in 6.2 mi ESE 8.1 mph - N/A   Mostly Cloudy
6:30 AM 82.4 °F 82.5 °F 59.0 °F 45% 29.77 in 6.2 mi ESE 12.7 mph - N/A   Scattered Clouds
7:00 AM 84.2 °F 84.4 °F 60.8 °F 45% 29.77 in 6.2 mi ESE 16.1 mph - N/A   Scattered Clouds
7:30 AM 84.2 °F 85.0 °F 62.6 °F 48% 29.77 in - ESE 19.6 mph - N/A   Clear
8:00 AM 86.0 °F 86.6 °F 62.6 °F 45% 29.77 in - ESE 17.3 mph - N/A   Clear
9:00 AM 89 °F - 61 °F 28% 29.78 in 6 mi ESE 20.7 mph - -   Widespread Dust
9:00 AM 89.6 °F 89.5 °F 60.8 °F 38% 29.77 in 5.6 mi ESE 20.7 mph - N/A   Unknown
10:00 AM 89.6 °F 88.1 °F 57.2 °F 33% 29.77 in 5.0 mi SE 19.6 mph - N/A   Scattered Clouds
10:30 AM 87.8 °F 87.6 °F 60.8 °F 40% 29.80 in 5.0 mi WSW 4.6 mph - N/A   Scattered Clouds
11:00 AM 89.6 °F 89.5 °F 60.8 °F 38% 29.77 in 5.6 mi SE 8.1 mph - N/A   Unknown
12:00 PM 93.2 °F - 51.8 °F 24% 29.74 in 5.6 mi SSE 16.1 mph - N/A   Unknown
1:00 PM 89.6 °F 89.5 °F 60.8 °F 38% 29.71 in 5.6 mi ESE 13.8 mph - N/A   Unknown
2:00 PM 87.8 °F 87.1 °F 59.0 °F 38% 29.68 in 5.6 mi ESE 11.5 mph - N/A   Unknown
2:30 PM 87.8 °F 88.5 °F 62.6 °F 43% 29.65 in 5.0 mi ESE 8.1 mph - N/A   Unknown
3:00 PM 92 °F - 52 °F 16% 29.66 in 4 mi SE 15.0 mph - -   Widespread Dust
3:00 PM 91.4 °F - 51.8 °F 26% 29.65 in 4.3 mi SE 15.0 mph - N/A   Unknown
3:30 PM 87.8 °F 87.6 °F 60.8 °F 40% 29.65 in 4.3 mi East 13.8 mph - N/A   Unknown
4:00 PM 84.2 °F 86.6 °F 66.2 °F 55% 29.65 in 4.3 mi ENE 13.8 mph - N/A   Unknown
4:30 PM 80.6 °F 83.2 °F 68.0 °F 65% 29.62 in 4.3 mi ENE 15.0 mph - N/A   Unknown
5:00 PM 80.6 °F 82.7 °F 66.2 °F 61% 29.62 in 3.7 mi East 15.0 mph - N/A   Unknown
5:30 PM 80.6 °F 82.7 °F 66.2 °F 61% 29.62 in 3.7 mi East 19.6 mph - N/A   Unknown
6:00 PM 80.6 °F 83.2 °F 68.0 °F 65% 29.65 in 3.1 mi NNE 10.4 mph - N/A   Mostly Cloudy
6:30 PM 80.6 °F 82.7 °F 66.2 °F 61% 29.65 in 3.1 mi ENE 8.1 mph - N/A   Mostly Cloudy
7:00 PM 84.2 °F 84.4 °F 60.8 °F 45% 29.62 in 3.7 mi ESE 13.8 mph - N/A   Mostly Cloudy
7:30 PM 84.2 °F 84.4 °F 60.8 °F 45% 29.62 in 3.7 mi ESE 13.8 mph - N/A   Mostly Cloudy
8:00 PM 84.2 °F 85.0 °F 62.6 °F 48% 29.65 in 3.7 mi ESE 15.0 mph - N/A   Mostly Cloudy
8:30 PM 84.2 °F 85.0 °F 62.6 °F 48% 29.65 in 4.3 mi ESE 16.1 mph 27.6 mph N/A Rain Light Rain
9:00 PM 85 °F - 61 °F 34% 29.64 in 5 mi SE 10.4 mph - - Rain Light Rain
9:00 PM 84.2 °F 84.4 °F 60.8 °F 45% 29.62 in 5.0 mi SE 10.4 mph - N/A   Mostly Cloudy
9:30 PM 89.6 °F - 50.0 °F 26% 29.62 in 5.0 mi SE 10.4 mph - N/A   Mostly Cloudy
10:00 PM 86.0 °F 85.4 °F 59.0 °F 40% 29.62 in 5.0 mi SE 12.7 mph - N/A   Mostly Cloudy
11:00 PM 84.2 °F 86.6 °F 66.2 °F 55% 29.62 in 5.6 mi ESE 11.5 mph - N/A Rain Light Rain
11:30 PM 80.6 °F 83.9 °F 69.8 °F 70% 29.62 in 5.0 mi ESE 12.7 mph - N/A   Mostly Cloudy